Location: Clermont
(50.2608°N, 4.3172°E)
Time: 02:55:54
(UTC+00:00)

Cosmos 2237 Rocket - Pass Details

Date: 13 August 2020
Orbit: 836 x 848 km, 71.0° (Epoch: 25 September)

Event Time Altitude Azimuth Distance (km) Brightness Sun altitude
Rises 21:20:08 0° 332° (NNW) 3,413 7.0 -17.8°
Reaches altitude 10° 21:23:24 10° 351° (N) 2,472 5.6 -18.1°
Maximum altitude 21:27:16 18° 34° (NE) 1,936 4.3 -18.5°
Drops below altitude 10° 21:31:08 10° 78° (ENE) 2,460 4.4 -18.8°
Enters shadow 21:31:54 - 83° (E) 2,656 4.5 -18.9°
